SCP
0 0 0 0 0 1 2 1 1 0 1 1 1 2 4 6 6 5 5 4 3 2 2 2 2 2 1 1 1 2 2 1 1 1 1 1 1 1 1 1 1 1 1 1
0 0 0 0 0 1 2 1 1 0 1 1 1 2 4 6 6 5 4 4 3 2 2 2 2 2 1 1 2 2 2 1 1 1 1 1 1 1 1 1 1 2 2 2
0 0 0 0 0 1 1 1 0 0 1 1 1 2 3 4 4 4 3 3 3 3 2 2 2 2 2 2 2 2 1 1 1 1 1 1 1 1 1 2 2 3 3 3
0 0 0 0 0 1 1 0 0 0 0 1 1 1 2 3 3 2 2 2 3 3 2 3 3 3 3 2 2 2 2 1 1 1 1 1 2 2 2 3 3 3 3 2
0 0 0 0 0 0 0 0 0 0 0 0 1 1 2 2 2 2 2 2 2 3 3 3 4 4 3 2 2 2 3 3 2 2 2 2 3 3 3 3 3 2 2 1
0 0 0 0 0 0 0 0 0 0 0 0 0 1 1 2 2 3 3 3 3 4 5 5 4 4 3 3 3 4 5 5 4 3 3 4 3 3 3 2 2 1 1 1
0 0 0 0 0 0 0 0 0 0 0 0 1 1 1 2 2 3 4 4 4 5 6 7 6 5 4 4 5 6 6 6 5 4 4 3 3 2 2 1 1 1 1 1
0 0 0 0 0 0 0 0 0 0 0 0 1 1 1 1 2 4 4 4 4 4 5 7 7 7 6 6 6 6 6 5 4 4 3 2 2 1 1 1 1 1 1 1
0 0 0 0 0 0 0 0 0 0 0 0 1 1 1 1 3 4 5 4 3 3 3 5 6 7 6 6 5 4 4 4 3 3 2 2 1 1 1 1 1 1 1 1
0 0 0 0 0 0 0 0 0 0 0 0 1 1 1 2 3 3 4 4 3 3 3 3 5 6 6 5 4 3 3 3 3 2 2 1 1 1 1 1 1 1 1 1
0 0 0 0 0 0 0 0 0 0 0 0 1 1 1 2 2 3 4 4 3 3 4 4 5 6 6 5 3 3 3 3 2 2 1 1 1 1 1 1 1 1 1 1
0 0 0 0 0 0 0 0 0 0 0 0 0 1 1 2 3 3 4 4 4 4 5 5 6 6 5 4 3 3 3 4 3 2 1 1 1 1 1 1 1 1 1 1
0 0 0 0 0 0 0 0 0 0 0 0 1 1 2 3 3 4 4 4 4 5 6 7 7 6 4 4 4 4 5 5 4 3 2 1 1 1 1 1 1 1 1 1
0 0 0 0 0 0 0 0 0 0 0 0 1 1 2 3 3 4 4 4 5 6 7 7 7 6 4 4 4 5 6 6 6 4 2 2 1 1 1 1 1 1 2 2
0 0 0 0 0 0 0 0 0 0 0 0 1 1 2 2 3 3 4 4 5 6 7 7 6 5 4 4 4 6 8 8 7 5 3 2 2 2 2 2 2 2 2 2
0 0 0 0 0 0 0 0 0 0 0 0 1 1 2 2 2 3 3 4 5 6 7 7 6 5 4 3 3 6 8 9 8 6 4 3 2 2 2 3 3 2 3 3
0 0 0 0 0 0 0 0 0 0 1 1 1 2 2 2 3 3 3 3 4 6 7 7 6 6 4 3 3 5 8 9 9 7 5 4 3 3 3 3 2 2 2 3
0 0 0 0 0 0 0 0 0 1 1 1 1 2 2 3 4 4 3 3 4 6 7 7 6 5 3 2 3 5 7 8 9 8 6 4 3 3 4 3 3 2 2 2
0 0 0 0 0 0 0 0 1 1 1 1 1 2 4 5 6 4 3 3 4 5 6 5 5 3 3 2 3 4 5 7 7 7 6 5 5 5 5 4 4 4 3 3
0 0 0 0 0 0 0 0 1 1 1 1 2 3 5 6 6 4 3 4 5 5 5 4 4 3 2 2 2 3 4 5 5 5 5 5 5 5 5 5 4 4 4 3
0 0 0 0 0 0 1 1 1 1 1 2 3 4 5 6 5 4 4 5 6 6 6 4 4 3 2 2 3 3 4 4 3 3 3 3 4 4 4 5 4 4 3 3
0 0 0 0 0 0 1 1 1 1 2 3 4 5 5 5 3 3 4 6 7 7 6 5 4 3 2 2 3 4 4 3 2 2 2 3 3 3 4 4 5 4 3 3
0 0 0 1 1 1 1 1 1 1 2 4 4 5 5 4 3 2 4 5 5 5 5 4 3 3 3 3 4 5 5 3 2 2 2 3 3 3 4 4 5 4 4 4
1 1 1 1 2 2 2 2 2 2 3 5 5 4 3 3 3 3 3 3 3 3 3 3 3 3 3 4 5 4 4 3 2 1 2 3 4 4 4 4 4 5 5 5
1 1 1 2 3 4 4 3 3 3 4 5 5 3 3 3 3 3 3 3 2 2 2 2 2 3 4 4 4 3 3 2 2 1 2 3 5 6 6 5 4 4 5 5
1 1 1 2 4 5 5 4 3 3 3 4 4 4 3 4 4 4 3 3 2 2 2 2 2 3 3 3 3 3 3 2 2 2 2 3 5 7 6 5 4 3 3 3
Wind_Speed
0 3 3 7 7 6 4 3 2 2 3 5 5 5 8 9 8 9 8 8 8 8 7 6 7 7 6 4 4 3 2 1 1 1 1 1 0 0 0 0 1 0 0 0
3 3 8 6 4 2 2 2 1 2 1 3 5 4 7 9 10 11 11 10 9 7 6 6 6 6 5 5 4 3 3 2 1 1 1 1 1 0 1 1 1 0 0 0
5 7 5 4 3 2 2 4 4 3 2 4 5 1 2 4 5 6 8 8 9 10 10 8 7 6 5 5 4 4 3 2 1 1 1 1 2 2 2 2 1 1 0 0
4 6 5 5 6 5 4 6 6 5 3 1 3 1 5 5 5 7 8 8 8 8 9 8 8 7 7 6 5 4 3 2 1 2 2 2 2 1 1 1 1 1 1 1
5 5 4 6 8 6 6 5 4 3 3 1 1 2 6 3 5 8 9 10 9 9 10 9 9 8 7 6 5 4 3 2 2 2 3 2 1 0 0 1 1 1 1 1
7 6 5 5 3 4 4 4 5 5 5 1 3 3 5 5 8 8 8 9 9 8 8 8 7 7 6 5 5 4 4 3 2 2 2 2 2 1 2 2 1 1 1 1
6 5 3 2 2 1 5 6 4 5 4 4 2 2 7 7 7 9 10 9 9 8 8 8 8 7 7 6 6 5 5 3 2 3 2 2 2 1 1 0 0 1 1 1
1 5 4 3 5 5 3 8 7 4 3 4 3 2 6 3 4 5 8 9 8 8 8 8 9 8 8 7 6 5 5 4 3 3 2 1 1 1 0 0 0 0 1 1
4 5 5 3 3 7 3 2 7 7 2 0 3 3 4 3 3 5 6 7 8 9 8 8 8 8 8 7 6 6 6 5 4 3 3 2 1 1 1 0 0 0 1 1
6 3 4 2 3 2 5 5 5 5 4 1 2 3 3 2 2 4 5 6 7 7 7 7 6 7 7 7 6 6 6 6 5 4 3 3 1 1 1 0 0 1 1 1
4 3 5 3 1 2 1 2 4 4 5 6 3 6 6 7 6 7 7 7 7 7 7 6 6 6 6 6 6 5 5 5 4 4 3 3 2 2 1 1 1 1 1 1
2 5 1 4 4 4 4 4 6 4 2 4 4 6 4 6 6 7 7 6 6 6 6 6 6 6 6 6 5 6 5 5 5 4 3 3 2 1 1 1 1 1 1 1
3 6 3 7 8 5 2 1 3 5 4 3 3 5 1 4 5 5 6 6 6 6 5 5 5 5 6 6 5 5 5 5 4 3 3 2 2 2 2 2 2 1 1 1
5 5 6 7 7 3 2 2 1 5 3 3 5 5 3 3 5 5 6 5 5 6 5 5 4 4 4 5 5 5 5 5 5 4 3 3 3 3 2 2 2 2 1 1
5 3 2 3 3 1 1 1 1 1 5 6 6 6 7 8 8 8 7 6 7 6 5 5 4 4 3 3 4 4 4 4 4 4 3 3 3 2 2 2 2 2 1 1
4 3 2 3 2 1 2 2 1 1 1 4 4 4 5 4 5 5 6 7 7 7 6 4 4 4 3 4 4 3 3 3 3 3 3 2 2 2 2 2 2 1 2 2
2 4 3 2 4 4 3 4 2 1 1 5 5 5 4 5 6 6 7 7 7 7 6 4 3 3 2 2 3 4 4 3 3 3 2 2 2 2 3 2 2 2 3 2
5 4 3 1 2 2 7 4 3 4 2 1 3 3 6 7 6 4 5 7 7 6 6 4 3 3 2 2 3 3 3 3 3 3 2 2 2 3 3 2 2 3 3 3
6 7 4 3 2 3 5 4 2 5 2 2 4 4 5 6 7 4 1 5 7 7 6 5 5 5 4 3 3 3 3 2 2 1 2 2 3 3 2 3 3 3 2 3
4 6 5 4 3 4 6 6 2 8 1 2 4 6 6 7 4 3 2 5 6 6 6 6 6 6 4 3 3 4 3 2 0 1 2 2 2 2 3 4 3 3 2 3
4 4 3 3 3 5 5 4 3 4 6 3 3 5 5 4 5 5 5 5 6 6 6 6 6 4 3 2 4 3 2 0 2 1 1 2 2 3 3 2 2 2 2 2
3 2 2 3 2 6 5 3 3 5 4 4 4 4 5 5 5 5 5 6 6 6 5 5 5 3 2 3 4 3 1 2 1 1 1 2 2 2 1 1 2 1 1 2
2 5 4 5 6 5 2 2 3 5 5 4 4 6 7 7 5 5 5 4 4 4 4 4 4 3 2 2 4 3 1 1 1 1 2 2 2 2 1 1 2 1 1 2
3 1 3 2 2 2 2 3 4 3 4 5 6 7 7 7 5 5 5 4 4 3 3 3 4 3 2 1 2 2 1 0 1 1 2 2 2 2 2 1 1 1 2 2
3 1 2 1 2 3 4 3 3 4 4 6 6 5 6 7 6 5 5 4 3 3 2 3 3 3 2 2 1 1 0 0 0 1 2 2 1 1 2 2 2 2 3 3
2 3 4 5 5 3 3 2 2 3 2 4 6 5 4 6 6 5 5 4 3 3 2 2 2 2 2 1 0 1 1 0 0 1 2 2 2 2 2 2 3 4 2 3
Wind_Direction
302 81 222 225 209 213 194 193 234 247 162 128 141 154 169 173 167 168 169 168 168 171 170 158 154 150 142 137 130 126 119 119 100 74 74 79 331 268 291 262 248 229 265 133
21 253 230 222 225 201 180 164 251 323 55 106 137 153 173 176 180 178 175 173 170 167 164 165 157 152 149 148 145 132 133 134 132 143 170 173 180 205 192 284 322 279 263 226
204 238 226 216 228 209 229 185 191 183 33 60 98 9 221 194 181 179 183 176 173 171 174 176 171 162 152 153 159 152 148 134 132 125 86 60 50 32 25 359 344 321 342 42
239 234 223 229 229 193 231 207 179 159 119 240 124 211 271 203 197 193 189 185 187 180 175 176 173 165 164 164 156 147 143 132 126 118 102 101 102 103 256 261 292 325 336 8
245 229 217 231 231 192 212 199 164 154 137 85 52 131 273 193 209 212 200 192 186 182 181 176 172 171 169 163 158 157 143 135 127 116 120 109 95 137 328 16 26 4 344 346
247 246 219 217 210 162 145 75 42 44 68 8 238 163 257 220 208 202 198 190 181 176 174 168 163 156 158 162 160 157 147 146 142 125 116 117 111 73 54 34 30 1 340 338
299 286 255 187 113 43 101 90 35 3 15 266 259 162 242 234 201 185 177 178 175 169 167 163 157 158 163 167 166 164 156 154 148 134 128 131 134 113 104 83 42 353 344 332
230 286 254 205 176 176 162 135 152 184 217 274 333 246 261 249 176 152 156 164 164 167 171 172 169 167 168 169 168 165 161 160 155 146 149 133 127 126 118 112 109 311 272 284
183 251 274 229 185 147 143 171 165 138 136 38 298 299 320 56 98 129 145 153 163 171 176 178 174 168 167 166 173 172 165 164 163 161 155 137 131 121 103 85 85 315 298 313
165 239 284 287 50 40 145 154 97 113 143 211 286 264 233 212 167 149 148 158 168 168 173 175 172 169 168 170 171 172 166 170 172 167 166 151 162 172 172 126 358 314 309 329
145 149 306 0 139 208 60 98 107 120 148 151 203 262 223 193 173 162 166 163 153 160 172 175 175 175 168 169 168 168 170 168 165 168 167 160 166 173 162 188 238 266 293 309
139 126 248 271 258 183 162 164 138 143 218 162 163 258 241 172 164 155 153 156 149 153 162 168 167 164 165 169 174 177 177 175 178 174 165 167 170 165 187 239 248 249 282 285
119 106 68 340 340 357 40 119 141 134 124 153 164 254 250 145 147 145 142 151 149 147 145 148 153 166 170 175 178 179 176 174 169 165 164 170 188 188 211 246 255 257 264 279
111 108 151 192 222 240 297 314 119 115 135 193 208 211 228 187 158 153 144 147 138 141 142 141 150 162 172 178 177 173 173 168 161 160 165 188 208 211 217 233 246 247 244 239
97 123 177 217 232 210 190 242 346 161 187 179 208 194 209 200 177 166 153 144 131 130 133 141 146 153 156 159 171 174 172 170 163 159 168 193 204 209 216 232 250 257 254 258
75 121 67 335 321 17 357 301 246 232 189 162 163 222 225 175 142 138 147 145 142 141 143 145 143 144 152 160 166 161 160 160 151 158 182 188 188 198 221 234 241 255 263 269
65 110 93 283 305 18 318 265 212 189 164 159 181 214 154 130 145 157 158 149 148 148 144 145 149 151 149 144 148 147 150 149 146 160 183 186 190 202 221 232 237 245 252 262
145 123 132 146 41 232 251 256 156 119 75 104 133 144 146 152 149 133 136 140 144 141 139 140 134 116 106 108 110 132 131 136 151 172 191 197 197 215 228 231 241 248 249 254
154 141 127 126 166 258 292 289 167 126 54 48 119 125 123 108 80 45 92 134 142 140 137 135 125 116 102 101 117 116 114 117 126 182 219 223 210 214 225 235 244 244 248 259
75 107 120 131 153 219 248 277 180 104 61 310 110 128 137 115 112 228 182 126 125 122 122 123 118 115 117 129 121 105 100 92 124 250 252 249 229 219 228 238 246 250 249 255
27 46 116 153 188 248 265 292 74 122 215 225 135 145 142 151 179 176 144 128 129 127 124 123 120 118 129 129 114 107 98 164 250 271 302 296 274 251 239 244 256 267 267 281
155 143 172 142 166 249 296 51 124 195 190 140 124 125 120 118 115 117 120 125 129 128 125 123 121 121 123 121 118 116 163 259 288 349 347 317 299 285 290 255 263 276 281 288
158 183 177 171 200 236 290 141 176 140 122 123 130 134 125 119 126 126 120 119 123 129 132 131 132 131 130 135 129 133 236 320 26 13 332 314 313 302 296 266 264 277 279 276
314 77 102 77 290 302 19 48 36 73 125 128 132 135 130 128 136 137 132 127 123 133 138 136 134 142 163 164 137 161 197 75 43 356 325 327 329 320 320 294 248 233 239 251
261 47 87 104 294 358 5 37 55 49 79 107 118 126 137 137 144 144 140 143 144 140 137 134 142 159 186 182 184 216 254 98 69 331 308 303 302 299 304 295 262 243 234 220
249 176 162 212 219 181 263 282 95 88 104 127 121 113 129 141 149 141 144 153 148 143 135 132 137 148 178 180 200 257 240 157 139 315 311 307 303 299 298 301 312 322 309 296